[[{"header":{"parameterUnit":"m.s-1","parameterCategory":1,"la1":30.2991,"la2":30.254,"lo1":-89.0895,"lo2":-89.0444,"dy":0.0017,"dx":0.0017,"nx":28,"ny":28,"refTime":"2023-10-23T21:00:00:Z","depth":0,"parameterNumber":2,"parameterNumberName":"U-component_of_WINDS"},"data":[0,0,0,0,0,0,0,0,0,0,0,0,0,0,0,0,0,0,0,0,0,0,0,0,0,0,0,0,0,0,0,0,0,0,0,0,0,0,0,0,0,0,0,0,0,0,0,0,0,0,0,0,0,0,0,0,0,0,-5.7435,-5.7437,0,-5.7586,-5.7588,-5.759,-5.7502,-5.7498,-5.7494,-5.749,-5.7642,-5.7649,-5.7657,0,0,0,0,0,0,0,0,0,0,0,0,0,-5.7072,-5.7079,-5.7435,-5.7437,-5.7439,-5.7586,-5.7588,-5.759,-5.7503,-5.7498,-5.7493,-5.7488,-5.7639,-5.7648,-5.7658,0,0,0,0,0,0,0,0,0,0,0,0,0,-5.7227,-5.7081,-5.7435,-5.7414,-5.7413,-5.7585,-5.7588,-5.7591,-5.7504,-5.7498,-5.7491,-5.7486,-5.7636,-5.7648,-5.7659,-5.7861,0,0,-5.7696,-5.7701,0,0,0,0,0,0,0,0,-5.7218,-5.724,-5.7415,-5.7415,-5.7415,-5.7519,-5.7515,-5.7681,-5.7506,-5.747,-5.749,-5.7482,-5.7606,-5.762,-5.7662,-5.7868,-5.7874,-5.7697,-5.7704,-5.771,-5.7713,0,0,0,0,0,0,0,-5.7207,-5.7233,-5.7495,-5.7417,-5.7418,-5.7396,-5.7411,-5.7546,-5.7571,-5.7472,-5.7466,-5.7485,-5.7605,-5.7651,-5.7665,-5.7876,-5.7697,-5.7707,-5.7715,-5.7719,-5.8256,-5.8263,0,0,0,0,0,0,-5.7198,-5.7225,-5.749,-5.7499,-5.7299,-5.7408,-5.7425,-5.7492,-5.757,-5.7575,-5.7491,-5.7481,-5.7633,-5.7651,-5.767,-5.791,-5.7709,-5.7721,-5.7728,-5.8249,-5.8258,-5.8265,0,0,0,0,0,0,-5.7191,-5.7223,-5.7484,-5.7361,-5.7392,-5.7421,-5.7497,-5.7498,-5.7544,-5.7584,-5.7588,-5.7533,-5.7629,-5.7653,-5.7814,-5.7914,-5.7726,-5.7737,-5.8241,-5.8252,-5.8262,-5.8393,0,0,0,0,0,0,-5.7181,-5.7221,-5.7297,-5.7363,-5.7399,-5.7626,-5.7504,-5.7506,-5.7565,-5.7554,-5.7624,-5.763,-5.7626,-5.7797,-5.7826,-5.7928,-5.7746,-5.8232,-5.8246,-5.8258,-5.838,-5.8407,-5.843,0,0,0,0,0,-5.7168,-5.7327,-5.7301,-5.7334,-5.7496,-5.7632,-5.7653,-5.7645,-5.7574,-5.7651,-5.7677,-5.7628,-5.79,-5.7814,-5.7846,-5.7953,-5.8225,-5.8242,-5.8257,-5.8369,-5.8402,-5.843,0,0,0,0,0,0,-5.727,-5.7335,-5.7307,-5.7493,-5.7558,-5.7617,-5.7714,-5.768,-5.7766,-5.7751,-5.7738,-5.7755,-5.7923,-5.7954,-5.7858,-5.8153,-5.8051,-5.8074,-5.8125,-5.8157,-5.8182,-5.8169,-5.7756,0,0,0,0,0,-5.7315,-5.7421,-5.7472,-5.7631,-5.7665,-5.7685,-5.7744,-5.7733,-5.7799,-5.7826,-5.7863,-5.7929,-5.8029,-5.8095,-5.819,-5.8386,-5.8399,-5.8475,-5.85,-5.8521,-5.854,-5.8646,-5.868,-5.8318,-5.8317,-5.8317,0,0,-5.7407,-5.7456,-5.7523,-5.7653,-5.7702,-5.7812,-5.7708,-5.7828,-5.7909,-5.7844,-5.7998,-5.8029,-5.8101,-5.8281,-5.8362,-5.8312,-5.8644,-5.8541,-5.8557,-5.8565,-5.8666,-5.87,-5.8731,-5.8328,-5.8326,-5.8325,0,0,-5.7631,-5.7679,-5.7817,-5.7869,-5.7946,-5.7958,-5.7992,-5.8057,-5.8075,-5.8231,-5.8184,-5.8281,-5.8454,-5.8508,-5.8558,-5.8807,-5.8765,-5.8839,-5.8968,-5.9072,-5.9101,-5.9126,-5.9214,-5.9245,-5.8858,-5.8859,-5.8859,0,-5.7735,-5.7899,-5.7891,-5.8016,-5.8074,-5.8023,-5.8163,-5.8213,-5.8317,-5.8358,-5.8302,-5.8519,-5.8565,-5.8756,-5.8817,-5.886,-5.8897,-5.8828,-5.9097,-5.9123,-5.9146,-5.923,-5.9263,-5.8867,-5.8866,-5.8865,-5.8864,0,-5.8023,-5.8138,-5.824,-5.8343,-5.8414,-5.8545,-5.8557,-5.863,-5.8615,-5.8633,-5.8793,-5.8846,-5.8951,-5.8997,-5.8982,-5.9187,-5.9154,-5.9099,-5.8996,-5.9189,-5.9267,-5.9299,-5.8879,-5.8876,-5.8873,-5.8871,0,0,-5.831,-5.8411,-5.8448,-5.8495,-5.8578,-5.8666,-5.8797,-5.89,-5.8962,-5.9037,-5.9145,-5.9295,-5.9244,-5.9302,-5.9293,-5.9385,-5.9578,-5.9318,-5.9319,-5.9363,-5.9807,-5.9847,-5.9884,-5.9553,-5.9559,-5.9564,-5.9801,0,-5.8538,-5.8765,-5.8764,-5.8974,-5.9081,-5.9036,-5.9149,-5.9213,-5.9235,-5.9328,-5.9352,-5.9458,-5.9384,-5.9419,-5.9508,-5.9536,-5.9667,-5.9519,-5.9652,-5.9657,-5.9632,-5.9925,-5.9967,-6.0187,-5.9831,-5.9837,-5.984,0,-5.8832,-5.8918,-5.9139,-5.9209,-5.9253,-5.9355,-5.9451,-5.9542,-5.9613,-5.9623,-5.969,-5.9668,-5.98,-5.9698,-5.988,-5.9779,-5.9834,-5.9857,-5.9865,-5.9875,-5.9758,-5.994,-6.0258,-6.029,-5.9889,-5.9885,-5.9881,0,-5.9017,-5.9189,-5.9343,-5.9385,-5.947,-5.9543,-5.9582,-5.9648,-5.9711,-5.9796,-5.9837,-5.9936,-5.999,-6.0067,-6.0073,-5.9997,-6.0257,-6.0154,-6.0267,-6.0267,-6.032,-6.0316,-6.0649,-6.0361,-6.0361,-6.036,-6.0359,0,-5.9269,-5.9406,-5.9428,-5.9523,-5.9675,-5.9674,-5.9825,-5.9857,-5.9917,-6.0017,-5.9986,-6.008,-6.0084,-6.0181,-6.0187,-6.0337,-6.0362,-6.0373,-6.0372,-6.0374,-6.0373,-6.0407,-6.0391,-6.0369,-6.0367,-6.0365,-6.0364,0,-5.9499,-5.952,-5.9686,-5.9755,-5.9776,-5.9885,-5.9943,-6.0034,-6.0055,-6.0183,-6.0213,-6.0246,-6.0359,-6.0374,-6.0506,-6.051,-6.0689,-6.0674,-6.0665,-6.0662,-6.0774,-6.0762,-6.1137,-6.1186,-6.087,-6.0873,-6.0875,0,-5.9657,-5.9761,-5.9843,-5.9909,-5.9952,-6.0058,-6.0124,-6.0128,-6.0198,-6.0289,-6.0369,-6.048,-6.0568,-6.0751,-6.0786,-6.0887,-6.0872,-6.0998,-6.0887,-6.0886,-6.0872,-6.0864,-6.0874,-6.1017,-6.1021,-6.1024,-6.1026,0,-5.9934,-5.994,-6.0036,-6.0138,-6.0217,-6.0297,-6.0371,-6.0427,-6.0441,-6.0521,-6.0637,-6.0706,-6.0843,-6.0952,-6.1054,-6.1093,-6.1062,-6.1061,-6.1092,-6.1093,-6.1083,-6.1088,-6.072,-6.1051,-6.1049,-6.1047,-6.1046,-6.1045,-6.0131,-6.0222,-6.0294,-6.0403,-6.0461,-6.0533,-6.0621,-6.0656,-6.0753,-6.0865,-6.0863,-6.099,-6.1062,-6.1194,-6.1242,-6.1342,-6.13,-6.1346,-6.1357,-6.1368,-6.1378,-6.1071,-6.1361,-6.136,-6.1359,-6.1359,-6.1358,0,-6.0404,-6.045,-6.055,-6.0657,-6.0743,-6.0711,-6.0793,-6.0866,-6.098,-6.105,-6.1139,-6.1273,-6.1381,-6.1427,-6.1532,-6.1604,-6.1592,-6.1631,-6.1624,-6.1634,-6.1409,-6.1371,-6.1639,-6.1639,-6.1639,-6.1638,-6.1638,-6.1638,-6.0556,-6.0708,-6.0724,-6.0906,-6.095,-6.1077,-6.1126,-6.1192,-6.1249,-6.1401,-6.1491,-6.1521,-6.1582,-6.1692,-6.179,-6.1801,-6.184,-6.1885,-6.1889,-6.1678,-6.1649,-6.1622,-6.1586,-6.1894,-6.1894,-6.2104,-6.2106,-6.2108]},{"header":{"parameterUnit":"m.s-1","parameterCategory":1,"la1":30.2991,"la2":30.254,"lo1":-89.0895,"lo2":-89.0444,"dy":0.0017,"dx":0.0017,"nx":28,"ny":28,"refTime":"2023-10-23T21:00:00:Z","depth":0,"parameterNumber":3,"parameterNumberName":"V-component_of_WINDS"},"data":[0,0,0,0,0,0,0,0,0,0,0,0,0,0,0,0,0,0,0,0,0,0,0,0,0,0,0,0,0,0,0,0,0,0,0,0,0,0,0,0,0,0,0,0,0,0,0,0,0,0,0,0,0,0,0,0,0,0,1.404,1.404,0,1.4066,1.4067,1.4067,1.4001,1.3999,1.3997,1.3995,1.4027,1.403,1.4032,0,0,0,0,0,0,0,0,0,0,0,0,0,1.3941,1.3944,1.404,1.404,1.4041,1.4066,1.4067,1.4067,1.4001,1.3999,1.3996,1.3994,1.4026,1.4029,1.4033,0,0,0,0,0,0,0,0,0,0,0,0,0,1.3978,1.3944,1.404,1.4011,1.4009,1.4066,1.4067,1.4067,1.4002,1.3999,1.3996,1.3993,1.4025,1.4029,1.4033,1.4122,0,0,1.4046,1.4048,0,0,0,0,0,0,0,0,1.3976,1.3982,1.4015,1.4013,1.4011,1.4027,1.4043,1.4086,1.4003,1.4005,1.3995,1.3991,1.403,1.4033,1.4045,1.4123,1.4124,1.4046,1.4049,1.4051,1.4052,0,0,0,0,0,0,0,1.3973,1.398,1.4051,1.4016,1.4013,1.3999,1.4001,1.4051,1.4035,1.4004,1.4,1.4003,1.4028,1.4042,1.4046,1.4125,1.4046,1.405,1.4052,1.4054,1.4281,1.4285,0,0,0,0,0,0,1.3974,1.3978,1.405,1.4051,1.3985,1.4004,1.4006,1.4025,1.4034,1.4032,1.4006,1.4,1.4036,1.4041,1.4047,1.4153,1.4051,1.4055,1.4057,1.4278,1.4282,1.4286,0,0,0,0,0,0,1.3972,1.3981,1.4049,1.4014,1.4021,1.4009,1.4031,1.4027,1.404,1.4035,1.4032,1.4022,1.4034,1.4041,1.4104,1.4153,1.4056,1.406,1.4274,1.4279,1.4284,1.4365,0,0,0,0,0,0,1.3969,1.398,1.4011,1.4015,1.4023,1.4103,1.4034,1.403,1.4047,1.404,1.405,1.4048,1.4032,1.4098,1.4108,1.4157,1.4063,1.4269,1.4276,1.4282,1.4358,1.4372,1.4384,0,0,0,0,0,1.3966,1.4033,1.4013,1.4022,1.4062,1.4106,1.4111,1.4089,1.4051,1.4084,1.4082,1.4048,1.4146,1.4105,1.4116,1.4167,1.4266,1.4274,1.4282,1.4352,1.4369,1.4384,0,0,0,0,0,0,1.4037,1.4033,1.4011,1.4081,1.4094,1.4095,1.4135,1.4108,1.4134,1.4126,1.41,1.4103,1.4172,1.4176,1.413,1.4255,1.42,1.4211,1.4249,1.4266,1.4279,1.4277,1.4067,0,0,0,0,0,1.4061,1.4095,1.4091,1.4153,1.4161,1.4148,1.4166,1.4148,1.4162,1.4168,1.4169,1.4186,1.422,1.4244,1.4275,1.4359,1.4362,1.44,1.4413,1.4424,1.4433,1.4481,1.4498,1.4312,1.4312,1.4312,0,0,1.411,1.4112,1.4135,1.4168,1.4176,1.4215,1.4152,1.4195,1.4225,1.4175,1.4234,1.4237,1.4254,1.4328,1.4361,1.4334,1.4486,1.4434,1.4443,1.4446,1.4491,1.4509,1.4524,1.4317,1.4316,1.4315,0,0,1.4219,1.4224,1.4277,1.4288,1.4301,1.4292,1.4306,1.4311,1.4311,1.4371,1.4335,1.4371,1.4431,1.4445,1.446,1.4581,1.4552,1.4593,1.4662,1.4709,1.4724,1.4737,1.4782,1.4798,1.4602,1.4602,1.4602,0,1.4279,1.4333,1.4309,1.4355,1.4371,1.4328,1.4384,1.4396,1.442,1.4434,1.4403,1.448,1.4488,1.4566,1.4596,1.461,1.4626,1.459,1.4724,1.4736,1.4748,1.4791,1.4807,1.4607,1.4607,1.4606,1.4606,0,1.4408,1.4447,1.4489,1.4512,1.4534,1.4585,1.4571,1.4597,1.458,1.4575,1.4639,1.4648,1.4682,1.47,1.4683,1.4778,1.4761,1.4727,1.4671,1.4771,1.4811,1.4827,1.4614,1.4612,1.4611,1.461,0,0,1.4558,1.457,1.4586,1.4598,1.4612,1.4643,1.4695,1.4727,1.4751,1.4771,1.4815,1.4869,1.4839,1.4857,1.4841,1.4883,1.4981,1.4844,1.4845,1.487,1.509,1.5115,1.5134,1.4963,1.4966,1.4968,1.5089,0,1.4667,1.4752,1.4734,1.4819,1.4857,1.4819,1.4864,1.488,1.4879,1.4913,1.4913,1.4952,1.4909,1.492,1.4959,1.4961,1.5025,1.4952,1.5006,1.5008,1.5002,1.5154,1.5179,1.5292,1.5104,1.5106,1.5108,0,1.4803,1.4828,1.4917,1.4928,1.4944,1.4984,1.5015,1.5047,1.5066,1.5063,1.5085,1.5064,1.5118,1.5063,1.514,1.5091,1.5113,1.5118,1.5122,1.5126,1.5063,1.5162,1.5328,1.5345,1.5132,1.513,1.5128,0,1.4906,1.4962,1.5023,1.5034,1.5048,1.5079,1.5087,1.5102,1.5125,1.5153,1.5168,1.5202,1.5221,1.5251,1.5241,1.5201,1.5321,1.5264,1.5322,1.5322,1.5347,1.5346,1.5519,1.5362,1.5362,1.5362,1.5361,0,1.5028,1.5085,1.5069,1.5106,1.517,1.5151,1.5215,1.5219,1.5235,1.5275,1.5246,1.5285,1.5269,1.5308,1.5302,1.5368,1.5377,1.5378,1.5375,1.538,1.538,1.5393,1.5385,1.5366,1.5365,1.5364,1.5363,0,1.5152,1.5143,1.5208,1.5218,1.5222,1.5268,1.5278,1.5315,1.5314,1.5365,1.5377,1.5375,1.542,1.5414,1.5464,1.546,1.5543,1.5531,1.5536,1.5533,1.5592,1.5586,1.5779,1.5804,1.5631,1.5633,1.5634,0,1.523,1.5272,1.5287,1.5312,1.5322,1.5361,1.5384,1.5369,1.5395,1.5423,1.5457,1.55,1.5532,1.5607,1.5612,1.5652,1.5641,1.5706,1.5647,1.5652,1.5643,1.5641,1.5646,1.5717,1.5719,1.5721,1.5722,0,1.537,1.5365,1.5398,1.5431,1.5459,1.5485,1.5508,1.5531,1.5519,1.555,1.5595,1.5621,1.5674,1.5717,1.5756,1.5767,1.5744,1.5741,1.5757,1.5762,1.5763,1.5765,1.5568,1.5736,1.5735,1.5734,1.5733,1.5733,1.5474,1.5511,1.5528,1.5567,1.5583,1.5607,1.5643,1.5647,1.5684,1.5724,1.5715,1.5767,1.579,1.5839,1.5855,1.5898,1.5875,1.5897,1.5902,1.5908,1.5916,1.5758,1.5905,1.5905,1.5904,1.5904,1.5904,0,1.5613,1.5623,1.5659,1.5693,1.5725,1.5701,1.5726,1.5756,1.5801,1.5824,1.5858,1.5913,1.5956,1.5966,1.6009,1.6042,1.6033,1.6054,1.6051,1.6055,1.5933,1.5916,1.6061,1.6061,1.6061,1.6061,1.606,1.606,1.5689,1.5751,1.5749,1.5821,1.5832,1.5882,1.5899,1.5922,1.594,1.6002,1.6038,1.6044,1.6064,1.6108,1.6149,1.6151,1.6168,1.6194,1.6192,1.6078,1.6063,1.6048,1.6031,1.6198,1.6198,1.631,1.6311,1.6312]}]]